Time,TemperatureF,DewpointF,PressureIn,WindDirection,WindDirectionDegrees,WindSpeedMPH,WindSpeedGustMPH,Humidity,HourlyPrecipIn,Conditions,Clouds,dailyrainin,SolarRadiationWatts/m^2,SoftwareType,DateUTC
2013-05-04 00:11:00,67.0,35.0,-100.00,SE,145,6.0,7.0,30,-99.99,,,0.00,0.000000,,2013-05-04 07:11:00,
2013-05-04 00:21:00,67.0,35.0,-100.00,SE,145,6.0,7.0,30,-99.99,,,0.00,0.000000,,2013-05-04 07:21:00,
2013-05-04 01:11:00,68.0,25.0,-100.00,SE,137,4.0,7.0,20,-99.99,,,0.00,0.000000,,2013-05-04 08:11:00,
2013-05-04 01:21:00,68.0,25.0,-100.00,SE,137,4.0,7.0,20,-99.99,,,0.00,0.000000,,2013-05-04 08:21:00,
2013-05-04 01:31:00,68.0,25.0,-100.00,SE,137,4.0,7.0,20,-99.99,,,0.00,0.000000,,2013-05-04 08:31:00,
2013-05-04 01:41:00,68.0,25.0,-100.00,SE,137,4.0,7.0,20,-99.99,,,0.00,0.000000,,2013-05-04 08:41:00,
2013-05-04 02:11:00,68.0,23.0,-100.00,South,190,6.0,7.0,18,0.00,,,0.00,0.000000,,2013-05-04 09:11:00,
2013-05-04 02:21:00,68.0,23.0,-100.00,South,190,6.0,7.0,18,0.00,,,0.00,0.000000,,2013-05-04 09:21:00,
2013-05-04 02:32:00,68.0,23.0,-100.00,South,190,6.0,7.0,18,0.00,,,0.00,0.000000,,2013-05-04 09:32:00,
2013-05-04 02:42:00,68.0,23.0,-100.00,South,190,6.0,7.0,18,0.00,,,0.00,0.000000,,2013-05-04 09:42:00,
2013-05-04 03:12:00,64.0,26.0,-100.00,SSE,148,5.0,6.0,24,0.00,,,0.00,0.000000,,2013-05-04 10:12:00,
2013-05-04 03:22:00,64.0,26.0,-100.00,SSE,148,5.0,6.0,24,0.00,,,0.00,0.000000,,2013-05-04 10:22:00,
2013-05-04 03:33:00,64.0,26.0,-100.00,SSE,148,5.0,6.0,24,0.00,,,0.00,0.000000,,2013-05-04 10:33:00,
2013-05-04 03:42:00,64.0,26.0,-100.00,SSE,148,5.0,6.0,24,0.00,,,0.00,0.000000,,2013-05-04 10:42:00,
2013-05-04 04:11:00,63.0,29.0,-100.00,SE,127,4.0,7.0,27,0.00,,,0.00,0.000000,,2013-05-04 11:11:00,
2013-05-04 04:21:00,63.0,29.0,-100.00,SE,127,4.0,7.0,27,0.00,,,0.00,0.000000,,2013-05-04 11:21:00,
2013-05-04 04:32:00,63.0,29.0,-100.00,SE,127,4.0,7.0,27,0.00,,,0.00,0.000000,,2013-05-04 11:32:00,
2013-05-04 04:42:00,63.0,29.0,-100.00,SE,127,4.0,7.0,27,0.00,,,0.00,0.000000,,2013-05-04 11:42:00,
2013-05-04 05:13:00,56.0,34.0,-100.00,SSW,197,2.0,5.0,44,0.00,,,0.00,0.000000,,2013-05-04 12:13:00,
2013-05-04 05:25:00,56.0,34.0,-100.00,SSW,197,2.0,5.0,44,0.00,,,0.00,0.000000,,2013-05-04 12:25:00,
2013-05-04 06:11:00,51.0,34.0,-100.00,NNW,342,2.0,5.0,52,-99.99,,,0.00,0.000000,,2013-05-04 13:11:00,
2013-05-04 06:21:00,51.0,34.0,-100.00,NNW,342,2.0,5.0,52,-99.99,,,0.00,0.000000,,2013-05-04 13:21:00,
2013-05-04 07:11:00,54.0,39.0,-100.00,SSE,149,1.0,4.0,56,-99.99,,,0.00,58.000000,,2013-05-04 14:11:00,
2013-05-04 07:21:00,54.0,39.0,-100.00,SSE,149,1.0,4.0,56,-99.99,,,0.00,58.000000,,2013-05-04 14:21:00,
2013-05-04 08:11:00,69.0,38.0,-100.00,NE,44,1.0,5.0,32,-99.99,,,0.00,295.000000,,2013-05-04 15:11:00,
2013-05-04 08:21:00,69.0,38.0,-100.00,NE,44,1.0,5.0,32,-99.99,,,0.00,295.000000,,2013-05-04 15:21:00,
2013-05-04 08:33:00,69.0,38.0,-100.00,NE,44,1.0,5.0,32,-99.99,,,0.00,295.000000,,2013-05-04 15:33:00,
2013-05-04 08:42:00,69.0,38.0,-100.00,NE,44,1.0,5.0,32,-99.99,,,0.00,295.000000,,2013-05-04 15:42:00,
2013-05-04 09:12:00,79.0,38.0,-100.00,South,186,2.0,4.0,23,0.00,,,0.00,558.000000,,2013-05-04 16:12:00,
2013-05-04 09:22:00,79.0,38.0,-100.00,South,186,2.0,4.0,23,0.00,,,0.00,558.000000,,2013-05-04 16:22:00,
2013-05-04 09:33:00,79.0,38.0,-100.00,South,186,2.0,4.0,23,0.00,,,0.00,558.000000,,2013-05-04 16:33:00,
2013-05-04 09:42:00,79.0,38.0,-100.00,South,186,2.0,4.0,23,0.00,,,0.00,558.000000,,2013-05-04 16:42:00,
2013-05-04 10:12:00,88.0,29.0,-100.00,SE,146,8.0,13.0,12,0.00,,,0.00,790.000000,,2013-05-04 17:12:00,
2013-05-04 10:22:00,88.0,29.0,-100.00,SE,146,8.0,13.0,12,0.00,,,0.00,790.000000,,2013-05-04 17:22:00,
2013-05-04 10:42:00,88.0,29.0,-100.00,SE,146,8.0,13.0,12,0.00,,,0.00,790.000000,,2013-05-04 17:42:00,
2013-05-04 11:12:00,92.0,28.0,-100.00,SSE,151,9.0,15.0,10,0.00,,,0.00,972.000000,,2013-05-04 18:12:00,
2013-05-04 11:21:00,92.0,28.0,-100.00,SSE,151,9.0,15.0,10,0.00,,,0.00,972.000000,,2013-05-04 18:21:00,
2013-05-04 12:11:00,94.0,27.0,-100.00,South,180,8.0,28.0,9,0.00,,,0.00,1089.000000,,2013-05-04 19:11:00,
2013-05-04 12:21:00,94.0,27.0,-100.00,South,180,8.0,28.0,9,0.00,,,0.00,1089.000000,,2013-05-04 19:21:00,
2013-05-04 12:31:00,94.0,27.0,-100.00,South,180,8.0,28.0,9,0.00,,,0.00,1089.000000,,2013-05-04 19:31:00,
2013-05-04 12:41:00,94.0,27.0,-100.00,South,180,8.0,28.0,9,0.00,,,0.00,1089.000000,,2013-05-04 19:41:00,
2013-05-04 13:11:00,95.0,21.0,-100.00,South,173,8.0,18.0,7,0.00,,,0.00,1136.000000,,2013-05-04 20:11:00,
2013-05-04 13:21:00,95.0,21.0,-100.00,South,173,8.0,18.0,7,0.00,,,0.00,1136.000000,,2013-05-04 20:21:00,
2013-05-04 13:31:00,95.0,21.0,-100.00,South,173,8.0,18.0,7,0.00,,,0.00,1136.000000,,2013-05-04 20:31:00,
2013-05-04 13:41:00,95.0,21.0,-100.00,South,173,8.0,18.0,7,0.00,,,0.00,1136.000000,,2013-05-04 20:41:00,
2013-05-04 14:11:00,96.0,28.0,-100.00,SSE,167,9.0,17.0,9,0.00,,,0.00,1110.000000,,2013-05-04 21:11:00,
2013-05-04 14:22:00,96.0,28.0,-100.00,SSE,167,9.0,17.0,9,0.00,,,0.00,1110.000000,,2013-05-04 21:22:00,
2013-05-04 14:33:00,96.0,28.0,-100.00,SSE,167,9.0,17.0,9,0.00,,,0.00,1110.000000,,2013-05-04 21:33:00,
2013-05-04 14:43:00,96.0,28.0,-100.00,SSE,167,9.0,17.0,9,0.00,,,0.00,1110.000000,,2013-05-04 21:43:00,
2013-05-04 15:12:00,96.0,28.0,-100.00,South,191,10.0,17.0,9,0.00,,,0.00,1017.000000,,2013-05-04 22:12:00,
2013-05-04 15:22:00,96.0,28.0,-100.00,South,191,10.0,17.0,9,0.00,,,0.00,1017.000000,,2013-05-04 22:22:00,
2013-05-04 15:32:00,96.0,28.0,-100.00,South,191,10.0,17.0,9,0.00,,,0.00,1017.000000,,2013-05-04 22:32:00,
2013-05-04 15:42:00,96.0,28.0,-100.00,South,191,10.0,17.0,9,0.00,,,0.00,1017.000000,,2013-05-04 22:42:00,
2013-05-04 16:11:00,95.0,27.0,-100.00,South,183,12.0,22.0,9,0.00,,,-99.99,835.000000,,2013-05-04 23:11:00,
2013-05-04 16:21:00,95.0,27.0,-100.00,South,183,12.0,22.0,9,0.00,,,-99.99,835.000000,,2013-05-04 23:21:00,
2013-05-04 16:32:00,95.0,27.0,-100.00,South,183,12.0,22.0,9,0.00,,,-99.99,835.000000,,2013-05-04 23:32:00,
2013-05-04 16:42:00,95.0,27.0,-100.00,South,183,12.0,22.0,9,0.00,,,-99.99,835.000000,,2013-05-04 23:42:00,
2013-05-04 17:11:00,94.0,27.0,-100.00,South,176,12.0,22.0,9,0.00,,,0.00,654.000000,,2013-05-05 00:11:00,
2013-05-04 17:21:00,94.0,27.0,-100.00,South,176,12.0,22.0,9,0.00,,,0.00,654.000000,,2013-05-05 00:21:00,
2013-05-04 17:31:00,94.0,27.0,-100.00,South,176,12.0,22.0,9,0.00,,,0.00,654.000000,,2013-05-05 00:31:00,
2013-05-04 17:42:00,94.0,27.0,-100.00,South,176,12.0,22.0,9,0.00,,,0.00,654.000000,,2013-05-05 00:42:00,
2013-05-04 18:11:00,92.0,22.0,-100.00,SSW,209,10.0,19.0,8,0.00,,,0.00,349.000000,,2013-05-05 01:11:00,
2013-05-04 18:21:00,92.0,22.0,-100.00,SSW,209,10.0,19.0,8,0.00,,,0.00,349.000000,,2013-05-05 01:21:00,
2013-05-04 18:32:00,92.0,22.0,-100.00,SSW,209,10.0,19.0,8,0.00,,,0.00,349.000000,,2013-05-05 01:32:00,
2013-05-04 18:42:00,92.0,22.0,-100.00,SSW,209,10.0,19.0,8,0.00,,,0.00,349.000000,,2013-05-05 01:42:00,
2013-05-04 19:11:00,90.0,26.0,-100.00,SSW,200,9.0,16.0,10,0.00,,,0.00,76.000000,,2013-05-05 02:11:00,
2013-05-04 19:21:00,90.0,26.0,-100.00,SSW,200,9.0,16.0,10,0.00,,,0.00,76.000000,,2013-05-05 02:21:00,
2013-05-04 19:31:00,90.0,26.0,-100.00,SSW,200,9.0,16.0,10,0.00,,,0.00,76.000000,,2013-05-05 02:31:00,
2013-05-04 19:42:00,90.0,26.0,-100.00,SSW,200,9.0,16.0,10,0.00,,,0.00,76.000000,,2013-05-05 02:42:00,
2013-05-04 20:11:00,86.0,29.0,-100.00,SSW,202,8.0,18.0,13,0.00,,,0.00,8.000000,,2013-05-05 03:11:00,
2013-05-04 20:21:00,86.0,29.0,-100.00,SSW,202,8.0,18.0,13,0.00,,,0.00,8.000000,,2013-05-05 03:21:00,
2013-05-04 20:32:00,86.0,29.0,-100.00,SSW,202,8.0,18.0,13,0.00,,,0.00,8.000000,,2013-05-05 03:32:00,
2013-05-04 20:42:00,86.0,29.0,-100.00,SSW,202,8.0,18.0,13,0.00,,,0.00,8.000000,,2013-05-05 03:42:00,
2013-05-04 21:12:00,83.0,31.0,-100.00,SSW,194,7.0,12.0,15,0.00,,,0.00,0.000000,,2013-05-05 04:12:00,
2013-05-04 21:22:00,83.0,31.0,-100.00,SSW,194,7.0,12.0,15,0.00,,,0.00,0.000000,,2013-05-05 04:22:00,
2013-05-04 21:32:00,83.0,31.0,-100.00,SSW,194,7.0,12.0,15,0.00,,,0.00,0.000000,,2013-05-05 04:32:00,
2013-05-04 21:43:00,83.0,31.0,-100.00,SSW,194,7.0,12.0,15,0.00,,,0.00,0.000000,,2013-05-05 04:43:00,
2013-05-04 22:12:00,82.0,22.0,-100.00,SSW,207,7.0,16.0,11,0.00,,,0.00,0.000000,,2013-05-05 05:12:00,
2013-05-04 22:21:00,82.0,22.0,-100.00,SSW,207,7.0,16.0,11,0.00,,,0.00,0.000000,,2013-05-05 05:21:00,
2013-05-04 23:12:00,80.0,21.0,-100.00,SW,216,6.0,16.0,11,0.00,,,0.00,0.000000,,2013-05-05 06:12:00,
2013-05-04 23:21:00,80.0,21.0,-100.00,SW,216,6.0,16.0,11,0.00,,,0.00,0.000000,,2013-05-05 06:21:00,